Home   Weather   Schweinfurt   Past weeks

Flag for Germany Past Weather in Schweinfurt, Bavaria, Germany — Yesterday and Last 2 Weeks

50 °F


Feels Like: 50 °F
Forecast: 43 / 54 °F
Wind: No wind

Location: Illesheim

Current Time: Oct 26, 2016 at 12:42:35 AM

Latest Report: Oct 25, 2016 at 11:58 PM

Visibility: N/A

Pressure: 30.30 "Hg

Humidity: 98%

Dew Point: 50 °F

Location of SchweinfurtLocation

Past Weather in Schweinfurt — Graph


Schweinfurt Temperature Yesterday

Maximum temperature yesterday: 57 °F (at 6:47 AM)
Minimum temperature yesterday: 50 °F (at 10:58 PM)
Average temperature yesterday: 55 °F

High & Low Weather Summary for the Past Weeks

High68 °F (Oct 16, 2:03 PM)100% (Oct 11, 12:58 AM)30.30 "Hg (Oct 11, 12:58 AM)
Low30 °F (Oct 13, 3:58 AM)49% (Oct 16, 2:03 PM)29.72 "Hg (Oct 14, 5:58 PM)
Average47 °F91%30.05 "Hg
* Reported Oct 10 10:58 PM — Oct 25 10:58 PM, Schweinfurt, Weather by CustomWeather, © 2016

Note: Actual official high and low records may vary slightly from our data, if they occured in-between our weather recording intervals... More about our weather records


Schweinfurt Weather History for the Previous 24 Hours

Scroll right to see more
Time TempWeatherWind HumidityBarometerVisibility
10:58 PM
Tue, Oct 25
50 °FOvercast.3 mph95%30.30 "HgN/A
9:58 PM51 °FOvercast.3 mph95%30.29 "HgN/A
8:58 PM52 °FOvercast.3 mph93%30.28 "HgN/A
7:58 PM54 °FMostly cloudy.3 mph92%30.27 "HgN/A
6:58 PM52 °FOvercast.No wind95%30.24 "HgN/A
5:58 PM54 °FOvercast.3 mph87%30.22 "HgN/A
4:58 PM56 °FOvercast.3 mph81%30.21 "HgN/A
3:58 PM57 °FBroken clouds.5 mph81%30.20 "HgN/A
2:58 PM57 °FMore clouds than sun.5 mph80%30.19 "HgN/A
1:58 PM57 °FPartly sunny.6 mph83%30.19 "HgN/A
12:58 PM55 °FOvercast.6 mph90%30.20 "HgN/A
11:58 AM55 °FOvercast.5 mph94%30.20 "HgN/A
10:58 AM54 °FMostly cloudy.8 mph99%30.19 "HgN/A
10:01 AM54 °FLow clouds.8 mph100%30.17 "HgN/A
9:58 AM54 °FLow clouds.10 mph100%30.17 "HgN/A
8:58 AM55 °FOvercast.13 mph100%30.14 "HgN/A
8:47 AM55 °FLight rain. Overcast.7 mph100%30.12 "HgN/A
7:58 AM56 °FOvercast.6 mph100%30.09 "HgN/A
7:50 AM57 °FOvercast.7 mph100%30.10 "HgN/A
6:58 AM57 °FLow clouds.14 mph100%30.06 "HgN/A
6:53 AM57 °FLight rain. Overcast.13 mph100%30.07 "HgN/A
6:47 AM57 °FLight rain. Overcast.13 mph100%30.06 "HgN/A
5:58 AM55 °FPartly cloudy.5 mph100%30.04 "HgN/A
4:58 AM57 °FLight rain. Overcast.10 mph99%30.03 "HgN/A
3:58 AM56 °FRain. Fog.12 mph100%30.01 "Hg6 mi
2:58 AM55 °FLight rain. Passing clouds.No wind100%30.00 "HgN/A
1:58 AM56 °FOvercast.5 mph100%30.00 "HgN/A
12:58 AM56 °FLight rain. Overcast.No wind100%29.99 "HgN/A
Weather by CustomWeather, © 2016

See weather overviewHow to use our weather pages